Simultaneous Nadir Overpasses (SNOs) Predictions

Prediction of SNOs between METOP-B and NOAA-19 Satellite Orbit:

Table of predicted SNOs for the next 14.0 days since TLE Epoch: 5/5/2017
Index Date (METOP-B) Time (METOP-B) Lat,Lon (METOP-B) SZA (METOP-B ) Date (NOAA-19) Time (NOAA-19) Lat,Lon (NOAA-19) SZA (NOAA-19 ) Distance(km) Time Diff (sec)
1 05/13/2017 07:41:32 -77.50,-109.31 120.93 05/13/2017 07:40:25 -77.51,-112.63 121.00 79.68 67
2 05/13/2017 08:32:20 77.14, 56.45 58.67 05/13/2017 08:31:12 77.13, 56.43 58.66 0.94 68
3 05/13/2017 09:23:02 -77.14,-136.23 121.34 05/13/2017 09:22:17 -77.12,-136.26 121.37 2.82 45
4 05/13/2017 10:13:42 77.12, 31.03 58.63 05/13/2017 10:13:13 77.11, 31.04 58.62 1.65 29
5 05/13/2017 11:04:24 -77.12,-161.65 121.38 05/13/2017 11:04:18 -77.09,-161.65 121.41 3.56 6
6 05/13/2017 11:55:04 77.11, 5.61 58.59 05/13/2017 11:55:14 77.08, 5.65 58.58 2.63 10
7 05/13/2017 12:45:46 -77.10, 172.93 121.42 05/13/2017 12:46:20 -77.11, 172.78 121.42 3.89 34
8 05/13/2017 13:36:26 77.09, -19.81 58.56 05/13/2017 13:37:16 77.10, -19.92 58.57 3.25 50
9 05/13/2017 14:27:08 -77.09, 147.52 121.46 05/13/2017 14:28:21 -77.08, 147.39 121.46 3.21 73




NCC Satellite Simultaneous Nadir Overpasses (SNOs) Prediction Service
